Cedar Creek Observed Data For Previous 48 Hours

Caption
Day and Hour Reservoir Elevation (behind dam)* Tailwater Elevation (below dam)* Average Hourly Discharge*
11/11/2018 1 AM CST 577.10 501.86 880
11/11/2018 2 AM CST 577.08 501.85 880
11/11/2018 3 AM CST 577.06 501.86 880
11/11/2018 4 AM CST 577.05 501.86 880
11/11/2018 5 AM CST 577.03 501.85 880
11/11/2018 6 AM CST 577.01 501.85 880
11/11/2018 7 AM CST 577.00 501.85 880
11/11/2018 8 AM CST 576.97 501.86 880
11/11/2018 9 AM CST 576.96 501.85 880
11/11/2018 10 AM CST 576.94 501.86 880
11/11/2018 11 AM CST 576.92 501.85 880
11/11/2018 12 PM CST 576.91 501.86 880
11/11/2018 1 PM CST 576.89 501.86 880
11/11/2018 2 PM CST 576.87 501.86 880
11/11/2018 3 PM CST 576.85 501.85 880
11/11/2018 4 PM CST 576.84 501.85 880
11/11/2018 5 PM CST 576.82 501.85 880
11/11/2018 6 PM CST 576.80 501.85 880
11/11/2018 7 PM CST 576.79 501.85 880
11/11/2018 8 PM CST 576.77 501.85 880
11/11/2018 9 PM CST 576.75 501.84 880
11/11/2018 10 PM CST 576.73 501.85 880
11/11/2018 11 PM CST 576.72 501.84 880
11/12/2018 12 AM CST 576.69 501.84 880
11/12/2018 1 AM CST 576.67 501.84 880
11/12/2018 2 AM CST 576.67 501.84 880
11/12/2018 3 AM CST 576.66 501.85 880
11/12/2018 4 AM CST 576.64 501.84 880
11/12/2018 5 AM CST 576.64 501.85 880
11/12/2018 6 AM CST 576.63 501.85 880
11/12/2018 7 AM CST 576.63 501.86 880
11/12/2018 8 AM CST 576.63 501.87 880
11/12/2018 9 AM CST 576.63 501.89 880
11/12/2018 10 AM CST 576.65 501.96 880
11/12/2018 11 AM CST 576.64 502.04 880
11/12/2018 12 PM CST 576.65 502.07 880
11/12/2018 1 PM CST 576.64 502.04 880
11/12/2018 2 PM CST 576.65 501.99 880
11/12/2018 3 PM CST 576.64 501.95 880
11/12/2018 4 PM CST 576.64 501.93 880
11/12/2018 5 PM CST 576.64 501.92 880
11/12/2018 6 PM CST 576.64 501.92 880
11/12/2018 7 PM CST 576.64 501.89 880
11/12/2018 8 PM CST 576.63 501.89 880
11/12/2018 9 PM CST 576.64 501.88 880
11/12/2018 10 PM CST 576.63 501.88 880
11/12/2018 11 PM CST 576.64 501.88 880
11/13/2018 12 AM CST 576.65 501.88 880
11/13/2018 1 AM CST 576.64 501.87 880
11/13/2018 2 AM CST 576.63 501.87 880
11/13/2018 3 AM CST 576.62 501.87 880
11/13/2018 4 AM CST 576.63 501.87 880
11/13/2018 5 AM CST 576.62 501.87 880
11/13/2018 6 AM CST 576.61 501.86 880
11/13/2018 7 AM CST 576.60 501.86 880
11/13/2018 8 AM CST 576.60 501.86 880

Elevations are in feet above sea level. Discharges are in cubic feet per second and are reported at the end of the hour.